R1ZCU-14 Weather Reports


time (UTC)temp
C
wind
direction
speed
KPH
gust
KPH
rain 1hr
cm
rain 24hr
cm
rain mn
cm
humidity
%
barometer
mb
20260503201055 1 0.0 0.0 0.00 0.00 0.00 52 995.6
20260503200054 2 0.0 0.0 0.00 0.00 0.00 52 995.6
20260503195054 2 0.0 0.0 0.00 0.00 0.00 52 995.6
20260503194053 2 0.0 0.0 0.00 0.00 0.00 51 995.6
20260503193053 2 0.0 0.0 0.00 0.00 0.00 51 995.5
20260503192052 2 0.0 0.0 0.00 0.00 0.00 51 995.5
20260503191052 2 0.0 0.0 0.00 0.00 0.00 50 995.5
20260503190051 2 0.0 0.0 0.00 0.00 0.00 50 995.5
20260503185051 2 0.0 0.0 0.00 0.00 0.00 49 995.4
20260503184050 3 0.0 0.0 0.00 0.00 0.00 49 995.4
20260503183050 3 0.0 0.0 0.00 0.00 0.00 47 995.2
20260503182049 3 0.0 0.0 0.00 0.00 0.00 45 995.2
20260503181049 3 0.0 0.0 0.00 0.00 0.00 44 995.1
20260503180048 3 0.0 0.0 0.00 0.00 0.00 44 995.1
20260503175048 3 0.0 0.0 0.00 0.00 0.00 43 995.0
20260503174047 3 0.0 0.0 0.00 0.00 0.00 43 994.9
20260503173047 4 0.0 0.0 0.00 0.00 0.00 42 994.8
20260503172046 4 0.0 0.0 0.00 0.00 0.00 40 994.7
20260503171046 5 0.0 0.0 0.00 0.00 0.00 40 994.6
20260503131034 6 0.0 0.0 0.00 0.00 0.00 37 993.9
20260503081019 13 0.0 0.0 0.00 0.00 0.00 19 992.2
20260503072017 13 0.0 0.0 0.00 0.00 0.00 21 991.3
20260503071016 11 0.0 0.0 0.00 0.00 0.00 24 991.3
20260503055012 12 0.0 0.0 0.00 0.00 0.00 23 991.0
20260503054012 12 0.0 0.0 0.00 0.00 0.00 23 990.8
20260503053011 11 0.0 0.0 0.00 0.00 0.00 25 990.9
20260503052011 11 0.0 0.0 0.00 0.00 0.00 24 990.7
20260503051010 11 0.0 0.0 0.00 0.00 0.00 26 990.7
20260503050010 10 0.0 0.0 0.00 0.00 0.00 27 990.7
20260503045009 9 0.0 0.0 0.00 0.00 0.00 30 990.5
20260503044009 9 0.0 0.0 0.00 0.00 0.00 31 990.7
20260503043008 8 0.0 0.0 0.00 0.00 0.00 31 990.7
20260503042008 7 0.0 0.0 0.00 0.00 0.00 35 990.8
20260503041007 7 0.0 0.0 0.00 0.00 0.00 36 990.8
20260503040007 7 0.0 0.0 0.00 0.00 0.00 37 990.8
20260503035006 7 0.0 0.0 0.00 0.00 0.00 39 990.7
20260503034006 7 0.0 0.0 0.00 0.00 0.00 40 990.7
20260503033005 8 0.0 0.0 0.00 0.00 0.00 40 990.6
20260503032005 7 0.0 0.0 0.00 0.00 0.00 41 990.6
20260503031004 7 0.0 0.0 0.00 0.00 0.00 43 990.8
20260503030004 6 0.0 0.0 0.00 0.00 0.00 45 990.8
20260503025003 6 0.0 0.0 0.00 0.00 0.00 44 990.8
20260503024003 7 0.0 0.0 0.00 0.00 0.00 45 990.8
20260503023002 6 0.0 0.0 0.00 0.00 0.00 46 990.7
20260503022002 5 0.0 0.0 0.00 0.00 0.00 47 990.8
20260503021001 5 0.0 0.0 0.00 0.00 0.00 48 990.8
20260503020001 5 0.0 0.0 0.00 0.00 0.00 50 990.9
20260503015000 3 0.0 0.0 0.00 0.00 0.00 53 990.8
20260503014000 2 0.0 0.0 0.00 0.00 0.00 56 991.0
20260503012959 2 0.0 0.0 0.00 0.00 0.00 58 991.2
20260503011959 2 0.0 0.0 0.00 0.00 0.00 60 991.1
20260503010958 2 0.0 0.0 0.00 0.00 0.00 63 991.1
20260503005958 1 0.0 0.0 0.00 0.00 0.00 67 991.3
20260503004957 1 0.0 0.0 0.00 0.00 0.00 66 991.2
20260503003957 1 0.0 0.0 0.00 0.00 0.00 66 991.2
20260503002956 1 0.0 0.0 0.00 0.00 0.00 65 991.1
20260503001956 1 0.0 0.0 0.00 0.00 0.00 64 990.9
20260503000955 1 0.0 0.0 0.00 0.00 0.00 63 990.9
20260502235955 1 0.0 0.0 0.00 0.00 0.00 62 990.9
20260502234954 1 0.0 0.0 0.00 0.00 0.00 61 991.0
20260502233954 1 0.0 0.0 0.00 0.00 0.00 61 990.9
20260502232953 2 0.0 0.0 0.00 0.00 0.00 59 990.9
20260502231953 2 0.0 0.0 0.00 0.00 0.00 60 990.9
20260502230952 2 0.0 0.0 0.00 0.00 0.00 60 990.7
20260502225952 2 0.0 0.0 0.00 0.00 0.00 60 990.7
20260502224951 2 0.0 0.0 0.00 0.00 0.00 60 990.4
20260502223951 2 0.0 0.0 0.00 0.00 0.00 63 990.4
20260502222950 2 0.0 0.0 0.00 0.00 0.00 64 990.3
20260502221950 2 0.0 0.0 0.00 0.00 0.00 64 990.2
20260502220949 2 0.0 0.0 0.00 0.00 0.00 65 990.2
20260502215949 2 0.0 0.0 0.00 0.00 0.00 64 990.2
20260502214948 2 0.0 0.0 0.00 0.00 0.00 63 990.2
20260502213948 2 0.0 0.0 0.00 0.00 0.00 61 990.0
20260502212947 2 0.0 0.0 0.00 0.00 0.00 61 990.0
20260502211947 2 0.0 0.0 0.00 0.00 0.00 59 990.0
20260502210946 2 0.0 0.0 0.00 0.00 0.00 58 989.8
20260502205946 2 0.0 0.0 0.00 0.00 0.00 57 989.7
20260502204945 3 0.0 0.0 0.00 0.00 0.00 57 989.7
20260502203945 3 0.0 0.0 0.00 0.00 0.00 57 989.7
20260502202944 3 0.0 0.0 0.00 0.00 0.00 60 989.6
20260502201944 3 0.0 0.0 0.00 0.00 0.00 60 989.6